Simultaneous Nadir Overpasses (SNOs) Predictions

Prediction of SNOs between AQUA and METOP-B Satellite Orbit:

Table of predicted SNOs for the next 14.0 days since TLE Epoch: 12/26/2014
Index Date (AQUA) Time (AQUA) Lat,Lon (AQUA) SZA (AQUA ) Date (METOP-B) Time (METOP-B) Lat,Lon (METOP-B) SZA (METOP-B ) Distance(km) Time Diff (sec)
1 12/29/2014 02:57:15 -73.72, -49.84 83.06 12/29/2014 02:56:24 -73.72, -49.76 83.06 2.36 51
2 12/29/2014 03:46:43 73.75, 117.74 96.97 12/29/2014 03:47:03 73.75, 117.64 96.97 3.15 20
3 12/31/2014 22:31:28 -73.69, 16.67 83.27 12/31/2014 22:30:49 -73.70, 16.59 83.26 2.48 39
4 12/31/2014 23:20:57 73.78,-175.87 96.82 12/31/2014 23:21:27 73.78,-175.89 96.82 0.46 30
5 01/03/2015 18:05:41 -73.73, 83.05 83.47 01/03/2015 18:05:13 -73.72, 83.05 83.48 1.33 28
6 01/03/2015 18:55:10 73.82,-109.51 96.62 01/03/2015 18:55:51 73.79,-109.43 96.60 3.34 41
7 01/06/2015 12:50:14 73.13, -16.89 95.61 01/06/2015 12:49:07 73.07, -19.33 95.64 79.10 67
8 01/06/2015 13:39:51 -73.73, 149.51 83.77 01/06/2015 13:39:36 -73.73, 149.48 83.77 1.11 15
9 01/06/2015 14:29:20 73.82, -43.05 96.33 01/06/2015 14:30:14 73.81, -43.00 96.31 1.95 54
10 01/09/2015 08:24:33 73.62, 48.57 95.76 01/09/2015 08:23:21 73.58, 48.21 95.75 12.00 72
11 01/09/2015 09:14:01 -73.73,-144.04 84.12 01/09/2015 09:14:00 -73.73,-144.10 84.12 2.06 1




NCC Satellite Simultaneous Nadir Overpasses (SNOs) Prediction Service
